Weather History for KAXH - January, 2013

Change the Weather History Date:

Sunday, January 6, 2013

  Actual Average (KHOU) Record (KHOU)
Temperature  
Mean Temperature 49 °F 53 °F  
Max Temperature 58 °F 62 °F 80 °F (1989)
Min Temperature 40 °F 43 °F 22 °F (1972)
Degree Days  
Heating Degree Days 16 13  
Month to date heating degree days 78  
Since 1 July heating degree days 617  
Moisture  
Dew Point 42 °F    
Average Humidity 80    
Maximum Humidity 99    
Minimum Humidity 48    
Precipitation  
Precipitation 0.00 in 0.11 in 3.70 in (1900)
Month to date precipitation 0.63  
Year to date precipitation 0.63  
Sea Level Pressure  
Sea Level Pressure 30.30 in    
Wind  
Wind Speed 7 mph (North)    
Max Wind Speed 12 mph    
Max Gust Speed 18 mph    
Visibility 9 miles    
Events      
T = Trace of Precipitation, MM = Missing Value Source: NWS Daily Summary

Daily Weather History Graph

Daily Weather History Graph

Search for Another Location

Airport or City:

Trip Planner

Search our weather history database for the weather conditions in past years. The results will help you decide how hot, cold, wet, or windy it might be!

Date:

Astronomy

Jan. 06, 2013 Rise Set
Actual Time 7:17 AM CST 5:38 PM CST
Civil Twilight 6:51 AM CST 6:04 PM CST
Nautical Twilight 6:22 AM CST 6:33 PM CST
Astronomical Twilight 5:53 AM CST 7:02 PM CST
Moon 1:43 AM CST (1/6) 12:58 PM CST (1/6)
Length of Visible Light 11h 12m
Length of Day
10h 20m
Waning Crescent, 33% of the Moon is Illuminated
Jan 6
Waning Crescent
Jan 11
New
Jan 18
First Quarter
Jan 26
Full
Feb 3
Last Quarter

Hourly Weather History & Observations

Time (CST) Temp. Windchill Dew Point Humidity Pressure Visibility Wind Dir Wind Speed Gust Speed Precip Events Conditions
12:15 AM 46.4 °F 44.3 °F 45.1 °F 95% 30.28 in 10.0 mi North 4.6 mph - N/A   Overcast
12:35 AM 46.4 °F 43.5 °F 45.1 °F 95% 30.27 in 10.0 mi North 5.8 mph - N/A   Overcast
12:55 AM 46.4 °F 41.5 °F 45.5 °F 97% 30.27 in 10.0 mi North 10.4 mph - N/A   Overcast
1:15 AM 46.6 °F - 45.5 °F 96% 30.27 in 7.0 mi North 8.1 mph - N/A   Overcast
1:35 AM 46.6 °F - 45.5 °F 96% 30.27 in 10.0 mi North 8.1 mph - N/A   Overcast
2:15 AM 46.4 °F 42.4 °F 45.5 °F 97% 30.27 in 7.0 mi North 8.1 mph - N/A   Overcast
2:35 AM 45.9 °F 41.2 °F 45.3 °F 98% 30.27 in 5.0 mi NNW 9.2 mph - N/A   Overcast
2:55 AM 45.5 °F 40.8 °F 45.0 °F 98% 30.28 in 4.0 mi North 9.2 mph - N/A   Overcast
3:15 AM 45.0 °F 41.8 °F 44.6 °F 99% 30.28 in 3.0 mi NNW 5.8 mph - N/A   Overcast
3:35 AM 45.0 °F 41.8 °F 44.8 °F 99% 30.27 in 1.2 mi North 5.8 mph - N/A   Overcast
3:55 AM 44.6 °F 40.7 °F 44.2 °F 99% 30.27 in 0.8 mi North 6.9 mph - N/A   Overcast
4:15 AM 44.1 °F 39.5 °F 43.9 °F 99% 30.27 in 4.0 mi North 8.1 mph - N/A   Overcast
4:35 AM 43.9 °F 39.9 °F 43.7 °F 99% 30.27 in 3.0 mi NNW 6.9 mph - N/A   Overcast
4:55 AM 43.7 °F 38.6 °F 43.5 °F 99% 30.28 in 5.0 mi North 9.2 mph - N/A   Overcast
5:15 AM 43.3 °F 39.9 °F 43.2 °F 99% 30.28 in 7.0 mi North 5.8 mph - N/A   Overcast
5:35 AM 43.2 °F 38.4 °F 42.6 °F 98% 30.28 in 10.0 mi North 8.1 mph - N/A   Overcast
5:55 AM 43.0 °F 38.2 °F 42.1 °F 97% 30.28 in 10.0 mi NNW 8.1 mph - N/A   Overcast
6:15 AM 42.8 °F 39.3 °F 41.9 °F 97% 30.28 in 10.0 mi North 5.8 mph - N/A   Overcast
6:35 AM 42.8 °F 37.5 °F 41.5 °F 95% 30.28 in 10.0 mi North 9.2 mph - N/A   Overcast
6:55 AM 42.8 °F 39.3 °F 41.5 °F 95% 30.29 in 10.0 mi North 5.8 mph - N/A   Overcast
7:15 AM 42.3 °F 36.8 °F 41.2 °F 96% 30.30 in 10.0 mi North 9.2 mph - N/A   Overcast
7:35 AM 41.9 °F 39.0 °F 40.8 °F 96% 30.31 in 10.0 mi NNW 4.6 mph - N/A   Mostly Cloudy
7:55 AM 41.9 °F 39.0 °F 41.0 °F 97% 30.32 in 10.0 mi North 4.6 mph - N/A   Mostly Cloudy
8:35 AM 42.4 °F 37.5 °F 41.0 °F 95% 30.34 in 10.0 mi NNW 8.1 mph - N/A   Mostly Cloudy
8:55 AM 44.1 °F 40.1 °F 41.9 °F 92% 30.34 in 10.0 mi North 6.9 mph - N/A   Mostly Cloudy
9:15 AM 45.0 °F 40.6 °F 42.1 °F 90% 30.35 in 10.0 mi NNW 8.1 mph - N/A   Overcast
9:35 AM 45.9 °F 43.6 °F 42.6 °F 88% 30.36 in 10.0 mi North 4.6 mph - N/A   Mostly Cloudy
9:55 AM 46.6 °F - 43.0 °F 87% 30.37 in 10.0 mi North 6.9 mph - N/A   Scattered Clouds
10:15 AM 48.7 °F - 43.0 °F 80% 30.36 in 10.0 mi North 6.9 mph - N/A   Scattered Clouds
10:35 AM 48.9 °F - 42.1 °F 77% 30.36 in 10.0 mi North 9.2 mph - N/A   Scattered Clouds
10:55 AM 50.0 °F - 42.4 °F 75% 30.35 in 10.0 mi North 8.1 mph - N/A   Scattered Clouds
11:35 AM 52.9 °F - 42.1 °F 67% 30.34 in 10.0 mi North 5.8 mph - N/A   Clear
11:55 AM 53.6 °F - 41.2 °F 63% 30.33 in 10.0 mi NNE 10.4 mph - N/A   Clear
12:15 PM 54.5 °F - 41.9 °F 62% 30.32 in 10.0 mi North 10.4 mph - N/A   Clear
12:35 PM 55.0 °F - 41.9 °F 61% 30.31 in 10.0 mi North 9.2 mph 16.1 mph N/A   Clear
12:55 PM 55.6 °F - 41.9 °F 60% 30.29 in 10.0 mi North 10.4 mph 17.3 mph N/A   Clear
1:15 PM 56.1 °F - 42.3 °F 60% 30.27 in 10.0 mi NNE 10.4 mph - N/A   Clear
1:35 PM 56.5 °F - 42.3 °F 59% 30.27 in 10.0 mi NE 9.2 mph - N/A   Clear
1:55 PM 56.8 °F - 41.0 °F 55% 30.26 in 10.0 mi NNE 11.5 mph 18.4 mph N/A   Clear
2:15 PM 58.1 °F - 42.1 °F 55% 30.26 in 10.0 mi North 6.9 mph - N/A   Clear
2:35 PM 58.3 °F - 41.4 °F 53% 30.26 in 10.0 mi North 9.2 mph 16.1 mph N/A   Clear
2:55 PM 58.3 °F - 40.5 °F 52% 30.26 in 10.0 mi North 8.1 mph - N/A   Clear
3:15 PM 58.6 °F - 40.3 °F 51% 30.26 in 10.0 mi North 9.2 mph 17.3 mph N/A   Clear
3:35 PM 58.8 °F - 39.9 °F 50% 30.26 in 10.0 mi North 11.5 mph - N/A   Clear
3:55 PM 58.5 °F - 38.8 °F 48% 30.26 in 10.0 mi North 10.4 mph - N/A   Clear
4:15 PM 58.1 °F - 39.2 °F 49% 30.25 in 10.0 mi North 8.1 mph - N/A   Clear
4:35 PM 57.6 °F - 38.7 °F 49% 30.26 in 10.0 mi North 9.2 mph - N/A   Clear
4:55 PM 56.8 °F - 38.5 °F 50% 30.26 in 10.0 mi North 6.9 mph - N/A   Clear
5:15 PM 55.8 °F - 38.5 °F 52% 30.27 in 10.0 mi North 5.8 mph - N/A   Clear
6:15 PM 50.0 °F - 39.6 °F 67% 30.30 in 10.0 mi Calm Calm - N/A   Clear
6:35 PM 50.7 °F - 38.3 °F 62% 30.30 in 10.0 mi Calm Calm - N/A   Clear
6:55 PM 48.6 °F - 39.2 °F 70% 30.30 in 10.0 mi Calm Calm - N/A   Clear
7:15 PM 48.9 °F - 38.3 °F 67% 30.30 in 10.0 mi North 3.5 mph - N/A   Clear
7:35 PM 48.4 °F - 38.5 °F 69% 30.31 in 10.0 mi North 4.6 mph - N/A   Clear
7:55 PM 47.8 °F - 38.7 °F 70% 30.31 in 10.0 mi North 3.5 mph - N/A   Clear
8:15 PM 47.7 °F - 38.5 °F 70% 30.31 in 10.0 mi North 3.5 mph - N/A   Clear
8:35 PM 46.0 °F - 38.5 °F 75% 30.32 in 10.0 mi Calm Calm - N/A   Clear
8:55 PM 43.2 °F - 38.1 °F 82% 30.32 in 10.0 mi Calm Calm - N/A   Clear
9:15 PM 41.9 °F - 38.1 °F 86% 30.33 in 10.0 mi Calm Calm - N/A   Clear
9:35 PM 42.3 °F - 38.7 °F 87% 30.33 in 10.0 mi Calm Calm - N/A   Clear
10:35 PM 41.0 °F - 40.1 °F 97% 30.33 in 10.0 mi Calm Calm - N/A   Clear
10:55 PM 40.1 °F - 39.0 °F 96% 30.33 in 10.0 mi Calm Calm - N/A   Clear
11:35 PM 41.7 °F - 39.7 °F 93% 30.32 in 10.0 mi Calm Calm - N/A   Clear
11:55 PM 41.4 °F - 39.6 °F 93% 30.32 in 10.0 mi Calm Calm - N/A   Clear